SCP
0 0 0 0 0 0 0 0 0 0 0 0 0 0 0 0 0 0 0 0 0 -0 -0 0 0 0 0 0 0 0 0 0 0 0 0 0 0 0 0 0 0 0 0 0 0 0 0 0 0 0 0 0 0 0
0 0 0 0 -0 0 0 0 0 0 0 0 0 0 0 0 0 0 0 0 0 0 0 0 0 0 0 0 0 0 0 0 0 0 0 0 0 0 0 0 0 0 0 0 0 0 0 0 0 0 0 0 0 0
0 0 0 0 0 0 0 0 0 0 0 0 0 0 0 0 0 0 0 0 0 0 0 0 0 0 0 0 0 0 0 0 0 0 0 0 0 0 0 0 0 0 0 0 0 0 0 0 0 0 0 0 0 0
0 0 0 0 0 0 0 0 0 0 0 0 0 0 0 0 0 0 0 0 0 0 0 0 0 0 0 0 0 0 0 0 0 0 0 0 0 0 0 0 0 0 0 0 0 0 0 0 0 0 0 0 0 0
0 0 0 0 0 -0 -0 -0 0 0 0 0 0 0 0 0 0 0 0 0 0 0 0 0 0 0 0 0 0 0 0 0 0 0 0 0 0 0 0 0 0 0 0 0 0 0 0 0 0 0 0 0 0 0
0 0 0 0 0 0 0 0 -0 0 0 0 0 0 0 0 0 0 0 0 0 0 0 0 0 0 0 0 0 0 0 0 0 0 0 0 0 0 0 0 0 0 0 0 0 0 0 0 0 0 0 0 0 0
0 0 0 0 0 0 0 0 0 -0 0 -0 0 0 0 0 0 0 0 0 0 0 0 0 0 0 0 0 0 0 0 0 0 0 0 0 0 0 0 0 0 0 0 0 0 0 0 0 0 0 0 0 0 0
0 -0 0 0 0 0 0 0 0 0 0 0 0 0 0 0 0 0 0 0 0 0 0 0 0 0 0 0 0 0 0 0 0 0 0 0 0 0 0 0 0 0 0 0 0 0 0 0 0 0 0 0 0 0
-0 -0 -0 0 0 0 0 0 0 0 0 0 0 0 0 0 0 0 0 0 0 0 0 0 0 0 0 0 0 0 0 0 0 0 0 0 0 0 0 0 0 0 0 0 0 0 0 0 0 0 0 0 0 0
0 0 0 0 0 0 0 0 0 0 0 0 0 0 0 0 0 0 0 0 0 0 0 0 0 0 0 0 0 0 0 0 0 0 0 0 0 0 0 0 0 0 0 0 0 0 0 0 0 0 0 0 0 0
0 -0 -0 0 0 0 -0 -0 -0 0 0 0 0 0 0 0 0 0 0 0 0 0 0 0 0 0 0 0 0 0 0 0 0 0 0 0 0 0 0 0 0 0 0 0 0 0 0 0 0 0 0 0 0 0
0 0 0 0 -0 0 0 0 0 0 0 0 0 0 0 0 0 0 0 0 0 0 0 0 0 0 0 0 0 0 0 0 0 0 0 0 0 0 0 0 0 0 0 0 0 0 0 0 0 0 0 0 0 0
-0 -0 -0 0 -0 -0 0 -0 0 0 0 0 0 0 0 0 0 0 0 0 0 0 0 0 0 0 0 0 0 0 0 0 0 0 0 0 0 0 0 0 0 0 0 0 0 0 0 0 0 0 0 0 0 0
-0 -0 -0 -0 0 0 -0 0 0 0 0 0 0 0 0 0 0 0 0 0 0 0 0 0 0 0 0 0 0 0 0 0 0 0 0 0 0 0 0 0 0 0 0 0 0 0 0 0 0 0 0 0 0 0
-0 0 -0 0 -0 0 -0 0 0 0 0 0 0 -0 -0 -0 0 0 0 0 0 0 0 0 0 0 0 0 0 0 0 0 0 0 0 0 0 0 0 0 0 0 0 0 0 0 0 0 0 0 0 0 0 0
-0 0 -0 0 -0 0 -0 0 0 0 0 -0 0 -0 0 -0 0 0 0 0 0 0 0 0 0 0 0 0 0 0 0 0 0 0 0 0 0 0 0 0 0 0 0 0 0 0 0 0 0 0 0 0 0 0
-0 -0 0 -0 0 -0 -0 0 0 0 0 0 0 -0 0 0 0 0 0 0 0 0 0 0 0 0 0 0 0 0 0 0 0 0 0 0 0 0 0 0 0 0 0 0 0 0 0 0 0 0 0 0 0 0
-0 -0 0 -0 -0 -0 0 0 0 -0 0 0 0 0 0 0 0 0 0 0 0 0 0 0 0 0 0 0 0 0 0 0 0 0 0 0 0 0 0 0 0 0 0 0 0 0 0 0 0 0 0 0 0 0
-0 0 0 0 -0 -0 -0 0 0 0 0 0 0 0 0 0 0 0 0 0 0 0 0 0 0 0 0 0 0 0 0 0 0 0 0 0 0 0 0 0 0 0 0 0 0 0 0 0 0 0 0 0 0 0
-0 -0 -0 -0 -0 0 0 -0 0 0 0 0 0 0 -0 0 0 0 0 0 0 0 0 0 0 0 0 0 0 0 0 0 0 0 0 0 0 0 0 0 0 0 0 0 0 0 0 0 0 0 0 0 0 0
0 -0 -0 0 0 -0 0 0 -0 0 0 0 0 0 0 0 0 0 0 0 0 0 0 0 0 0 0 0 0 0 0 0 0 0 0 0 0 0 0 0 0 0 0 0 0 0 0 0 0 0 0 0 0 0
0 0 0 0 0 0 0 0 0 0 0 0 0 0 0 0 0 0 0 0 0 0 0 0 0 0 0 0 0 0 0 0 0 0 0 0 0 0 0 0 0 0 0 0 0 0 0 0 0 0 0 0 0 0
-0 -0 0 0 0 0 0 0 0 0 0 0 0 0 0 0 0 0 0 0 0 0 0 0 0 0 0 0 0 0 0 0 0 0 0 0 0 0 0 0 0 0 0 0 0 0 0 0 0 0 0 0 0 0
-0 -0 -0 0 0 0 0 0 0 0 0 0 0 0 0 0 0 0 0 0 0 0 0 0 0 0 0 0 0 0 0 0 0 0 0 0 0 0 0 0 0 0 0 0 0 0 0 0 0 0 0 0 0 0
0 -0 -0 -0 0 0 0 0 0 0 0 0 0 0 0 0 0 0 0 0 0 0 0 0 0 0 0 0 0 0 0 0 0 0 0 0 0 0 0 0 0 0 0 0 0 0 0 0 0 0 0 0 0 0
0 0 0 -0 -0 -0 0 0 0 0 0 0 0 0 0 0 0 0 0 0 0 0 0 0 0 0 0 0 0 0 0 0 0 0 0 0 0 0 0 0 0 0 0 0 0 0 0 0 0 0 0 0 0 0
0 0 0 0 0 0 0 0 0 0 0 0 0 0 0 0 0 0 0 0 0 0 0 0 0 0 0 0 0 0 0 0 0 0 0 0 0 0 0 0 0 0 0 0 0 0 0 0 0 0 0 0 0 0
0 0 0 0 0 0 -0 -0 -0 0 0 0 0 0 0 0 0 0 0 0 0 0 0 0 0 0 0 0 0 0 0 0 0 0 0 0 0 0 0 0 0 0 0 0 0 0 0 0 0 0 0 0 0 0
0 0 0 0 0 0 0 0 0 0 0 0 0 0 0 0 0 0 0 0 0 0 0 0 0 0 0 0 0 0 0 0 0 0 0 0 0 0 0 0 0 0 0 0 0 0 0 0 0 0 0 0 0 0
0 0 0 0 0 0 0 0 0 0 0 0 0 0 0 0 0 0 0 0 0 0 0 0 0 0 0 0 0 0 0 0 0 0 0 0 0 0 0 0 0 0 0 0 0 0 0 0 0 0 0 0 0 0
0 -0 -0 -0 0 0 0 0 0 0 0 0 0 0 0 0 0 0 0 0 0 0 0 0 0 0 0 0 0 0 0 0 0 0 0 0 0 0 0 0 0 0 0 0 0 0 0 0 0 0 0 0 0 0
-0 -0 -0 0 0 0 0 0 0 0 0 0 0 0 0 0 0 0 0 0 0 0 0 0 0 0 0 0 0 0 0 0 0 0 0 0 0 0 0 0 0 0 0 0 0 0 0 0 0 0 0 0 0 0
0 0 0 -0 -0 -0 0 0 0 0 0 0 0 0 0 0 0 0 0 0 0 0 0 0 0 0 0 0 0 0 0 0 0 0 0 0 0 0 0 0 0 0 0 0 0 0 0 0 0 0 0 0 0 0
Wind_Speed_500mb
46 51 53 52 69 68 85 84 85 79 78 79 83 96 96 89 77 74 58 48 47 29 43 23 31 24 14 46 23 27 21 11 18 26 24 14 15 19 8 11 24 23 24 14 7 15 49 33 19 27 15 17 20 17
47 48 57 60 59 69 69 73 78 79 79 79 85 92 98 96 84 79 57 64 49 30 12 37 57 50 41 44 51 58 26 40 28 18 13 12 9 11 32 24 7 21 21 20 29 21 5 69 38 73 28 26 29 29
39 41 47 25 56 57 57 61 69 77 79 84 85 92 101 101 95 86 80 53 50 35 33 49 60 52 55 62 44 22 46 32 35 49 8 5 13 11 23 44 11 10 8 15 11 34 24 58 69 38 60 40 28 30
28 25 20 7 32 46 56 62 78 82 85 95 91 89 113 102 97 85 80 73 63 18 9 23 49 55 82 73 61 72 43 69 41 67 2 6 11 28 27 9 35 14 28 17 27 30 5 52 80 70 54 51 48 42
21 20 16 9 12 22 28 34 49 78 88 93 82 94 98 94 89 85 84 79 70 56 8 16 31 39 40 66 79 85 72 54 46 15 8 9 5 7 3 5 17 21 18 26 33 48 47 60 52 76 71 78 74 57
25 23 18 18 17 19 22 23 24 18 70 81 74 80 82 79 80 79 36 74 73 71 18 9 16 40 40 47 62 81 93 74 37 16 12 12 11 12 11 11 27 72 67 70 25 24 42 46 37 59 83 91 83 66
26 25 21 19 22 21 21 17 9 10 37 54 51 63 65 68 76 66 22 34 71 71 25 5 6 24 45 36 45 55 77 51 44 26 11 15 14 22 3 22 7 61 77 78 66 46 26 49 42 40 54 78 84 73
27 24 24 25 25 24 24 24 19 16 18 31 47 55 57 59 61 59 74 42 50 82 29 8 5 5 30 16 13 27 27 33 22 15 18 7 12 3 12 49 30 29 54 69 79 73 71 59 61 43 48 60 68 80
26 29 31 24 23 22 23 26 26 25 28 34 41 47 49 64 59 96 84 83 67 48 8 8 15 13 33 15 16 18 20 8 16 8 8 23 9 14 15 9 41 62 50 42 59 63 65 52 47 52 52 58 63 69
30 24 18 19 26 26 34 37 40 40 35 34 31 24 31 71 70 46 33 49 43 34 27 9 42 11 40 20 11 8 14 8 8 9 29 8 9 9 21 26 33 50 60 54 56 40 49 53 58 55 55 55 58 61
27 29 26 23 29 29 24 30 35 46 40 41 27 31 31 39 56 37 14 19 16 9 20 15 37 9 33 18 13 21 8 10 11 10 18 11 9 11 36 34 37 41 46 53 56 56 64 65 63 57 56 56 49 49
28 14 22 35 40 37 41 45 48 51 66 81 60 48 52 22 21 14 15 9 11 23 15 25 22 35 20 18 5 10 7 9 13 18 11 10 9 15 45 42 39 38 42 44 39 34 34 51 51 52 47 44 44 45
22 32 34 34 47 49 44 23 8 26 54 67 33 16 14 2 8 15 15 3 9 6 15 16 15 30 19 19 6 11 15 11 20 7 10 6 8 16 32 34 34 35 34 40 42 35 27 36 48 54 53 48 43 41
37 30 35 32 33 43 13 6 31 20 15 15 6 11 2 9 3 6 4 9 3 5 31 49 14 8 12 12 7 10 1 8 9 12 13 5 13 12 23 30 31 32 35 36 38 35 37 36 36 41 42 47 49 47
35 18 10 39 34 9 7 7 32 14 16 13 11 8 5 2 2 7 14 11 16 18 13 22 14 5 5 7 6 5 3 9 9 8 1 6 19 22 22 28 32 33 35 33 36 38 36 35 37 42 44 45 43 42
25 12 30 31 27 18 10 18 28 26 15 13 18 7 9 6 9 11 19 8 20 28 9 12 8 8 6 7 8 6 11 11 5 0 8 14 19 28 31 32 32 35 37 41 42 38 36 35 38 42 44 43 43 41
27 30 40 20 52 25 11 18 16 20 14 11 8 27 8 7 5 11 15 16 26 18 2 5 8 6 7 8 6 8 4 5 5 15 13 18 19 27 37 37 35 36 39 42 44 41 37 36 38 41 46 46 44 44
40 45 46 14 33 14 69 23 17 16 12 17 4 5 22 21 17 12 25 29 13 9 8 8 8 15 9 6 4 4 8 16 22 26 19 22 22 33 49 49 45 44 44 46 48 49 44 41 41 42 41 42 43 42
38 40 44 14 19 12 14 18 19 9 10 8 13 16 14 19 28 37 30 24 42 34 20 12 13 8 6 6 6 13 17 11 15 29 29 29 30 45 58 54 49 50 52 52 54 55 51 47 47 46 45 42 43 43
22 22 39 23 13 14 14 15 13 17 6 11 10 20 21 22 28 28 49 47 38 19 15 11 8 8 8 11 13 10 14 14 22 27 29 27 34 53 57 56 55 55 59 60 61 59 56 55 49 46 43 41 42 45
16 32 39 35 38 33 18 11 15 12 14 10 8 6 15 25 46 38 34 39 25 13 8 16 18 17 15 15 16 17 18 18 17 24 24 35 40 47 50 51 48 48 52 54 56 53 50 52 48 41 37 38 35 35
28 27 23 30 21 16 19 24 10 7 8 12 9 11 8 5 7 23 38 37 18 21 16 17 22 22 25 28 25 24 27 30 32 34 34 39 42 44 47 46 44 47 47 47 44 46 46 43 39 34 29 29 27 26
14 20 21 28 17 22 6 15 11 17 8 6 7 8 8 8 15 18 9 19 16 34 28 23 19 23 25 25 25 26 27 33 36 37 37 40 41 40 41 41 39 39 42 41 36 36 36 34 31 27 24 22 20 18
23 19 23 19 30 6 12 15 14 12 12 9 8 9 9 8 15 12 9 9 23 41 38 31 23 18 21 29 35 34 32 31 34 35 34 31 34 36 34 36 34 34 34 35 32 31 31 28 26 23 20 18 17 13
12 30 22 17 24 14 15 13 14 12 9 9 8 9 6 13 7 9 6 11 28 40 36 28 27 29 27 26 27 29 26 26 28 31 31 27 29 32 34 34 34 36 35 27 29 27 26 22 17 15 15 12 9 6
19 18 13 10 11 11 7 9 12 10 7 9 7 8 9 7 10 10 4 22 21 30 29 27 23 21 24 24 22 22 23 25 24 23 29 29 29 28 31 31 30 31 27 22 18 16 14 12 12 11 10 9 5 4
14 10 16 20 9 6 10 12 10 9 11 11 7 9 7 11 10 4 11 23 25 23 17 18 19 21 24 25 26 26 23 22 25 30 29 26 25 25 25 26 25 20 15 10 8 6 6 7 8 7 6 7 8 9
12 21 10 22 18 22 8 8 10 8 6 12 3 13 8 6 2 7 13 19 18 15 16 20 22 24 25 30 32 25 25 24 22 24 25 26 25 22 16 14 13 12 12 10 10 9 8 7 6 7 8 8 9 16
14 21 8 11 12 16 11 6 4 7 11 4 5 5 6 10 16 19 26 28 22 18 21 24 25 25 23 23 24 29 28 24 19 20 22 22 17 16 16 14 13 13 11 11 11 10 11 12 14 13 12 14 15 17
15 23 9 9 10 11 18 16 17 20 31 29 25 53 50 40 32 36 42 42 43 39 32 30 30 23 25 22 21 20 20 21 21 20 18 20 20 18 17 16 15 15 14 13 14 15 16 15 17 20 21 23 25 27
16 17 17 17 9 15 38 53 61 64 64 59 54 48 30 20 31 42 47 45 44 38 34 28 28 32 22 22 22 21 22 19 18 18 18 18 18 19 17 15 14 13 12 12 13 15 16 16 17 18 19 21 23 27
16 14 8 7 3 10 12 9 14 14 11 12 12 10 10 9 11 15 28 36 38 45 41 34 23 26 25 13 15 19 17 15 14 15 16 16 16 15 14 14 14 13 13 15 17 19 19 19 20 21 23 23 25 27
10 11 10 7 5 5 7 6 8 8 11 7 10 10 10 8 10 16 20 33 34 43 39 34 23 17 24 9 12 18 18 17 17 18 21 24 24 21 19 19 18 18 18 18 20 22 22 23 25 26 27 28 28 30
Wind_Direction_500mb
293 298 299 257 245 230 220 225 225 228 229 229 228 226 222 217 217 213 209 208 205 209 224 213 240 222 223 205 188 154 145 191 186 195 198 184 210 203 150 154 168 165 169 188 184 222 255 147 129 182 196 167 184 191
298 297 303 254 230 212 219 225 229 231 234 234 230 226 218 215 213 209 203 218 219 218 251 234 235 248 230 223 203 175 191 165 178 176 193 193 199 168 205 219 174 193 186 185 188 219 137 180 196 209 190 182 193 204
304 315 327 243 213 217 224 228 234 235 236 235 234 225 217 212 211 208 208 198 205 220 261 258 256 224 228 232 216 170 219 201 208 198 147 164 197 161 194 221 120 251 189 204 127 230 224 203 219 229 214 216 205 216
310 316 324 285 216 229 240 240 240 241 237 238 227 222 213 203 205 206 202 208 200 191 225 240 242 241 235 236 233 227 214 210 213 210 141 192 205 200 215 190 206 170 153 177 243 249 295 235 222 221 215 223 229 221
329 332 333 314 254 244 245 252 258 266 231 221 222 220 206 196 204 204 206 208 212 193 192 249 257 252 245 240 236 235 217 216 201 197 199 211 169 137 330 70 236 184 170 187 222 222 209 243 231 222 221 225 226 226
317 311 311 311 298 280 269 279 294 262 195 204 218 220 185 192 198 197 195 204 213 221 229 252 242 241 247 253 242 226 222 221 207 186 198 204 201 179 168 221 229 207 213 214 226 228 230 226 234 230 225 225 231 226
306 305 300 302 298 288 279 276 277 194 199 196 187 189 195 199 199 194 177 215 213 207 209 235 266 216 240 244 235 219 207 204 204 200 189 164 192 180 208 231 161 211 215 215 222 224 225 216 226 225 223 230 234 223
304 306 306 300 290 276 270 262 253 231 210 209 212 208 204 204 210 216 219 221 204 190 202 217 230 136 182 180 190 195 173 184 192 156 144 163 144 207 242 236 216 212 218 216 217 220 234 243 228 219 217 218 220 216
305 300 295 284 281 268 258 253 246 232 218 216 214 211 210 208 207 218 223 213 203 191 196 161 191 217 176 175 185 185 191 187 162 162 190 157 155 211 225 179 193 208 203 207 214 220 229 229 225 219 213 210 213 209
305 305 294 252 262 269 283 265 261 252 244 224 219 209 201 217 208 199 181 194 199 198 206 189 203 189 170 161 187 173 197 177 177 194 135 211 222 219 192 184 201 203 210 212 193 195 204 211 210 205 211 216 217 212
292 302 300 328 306 301 289 280 259 276 252 210 206 208 208 209 180 188 184 189 182 187 165 173 199 153 197 174 183 198 198 172 188 191 171 185 239 199 188 190 188 191 193 196 208 218 221 221 208 203 210 215 215 215
291 333 319 322 321 297 285 277 274 231 216 205 195 185 170 182 175 204 178 122 188 197 194 180 175 182 174 183 180 182 224 191 209 150 167 194 221 153 178 182 185 186 191 192 188 194 206 216 213 203 203 207 208 210
323 326 318 291 295 302 301 299 136 148 166 152 160 124 170 270 153 186 184 172 162 181 174 160 173 164 142 204 219 205 189 216 127 187 198 211 105 141 178 176 178 180 182 189 190 178 182 208 203 200 198 200 205 205
303 300 284 305 314 316 275 270 239 189 158 73 64 87 204 167 128 251 166 156 316 219 181 163 147 144 147 164 195 192 291 156 217 188 217 137 122 136 176 177 172 170 173 176 170 168 191 196 183 183 187 195 197 196
321 296 250 348 333 310 13 268 209 206 58 68 47 67 80 275 111 339 350 357 7 307 240 158 82 83 126 130 178 137 86 235 220 216 33 99 133 143 148 163 171 169 165 154 152 174 179 177 169 169 172 178 183 187
353 349 338 357 345 175 104 144 134 79 61 61 45 29 344 43 6 19 360 348 354 344 281 126 133 148 152 138 177 168 177 212 154 310 61 142 141 140 147 149 155 159 160 155 156 162 170 161 159 161 160 164 169 175
350 12 355 91 72 45 166 97 65 59 61 51 42 28 358 42 29 4 340 325 339 322 17 62 93 83 99 82 78 357 3 2 88 75 104 136 135 133 126 124 135 140 150 154 153 156 157 153 151 150 153 154 161 165
0 4 360 155 201 61 42 47 81 77 72 51 65 76 74 57 5 10 347 0 15 8 39 63 44 45 36 69 54 57 59 64 97 101 104 106 119 118 113 116 123 129 130 134 142 141 139 137 137 136 143 146 153 154
347 351 2 41 110 91 61 45 45 87 66 69 48 63 77 52 36 24 32 68 79 84 82 55 54 40 42 19 358 23 45 71 97 94 94 106 119 117 109 108 113 119 122 121 122 120 120 122 122 126 128 136 141 140
356 1 36 33 127 86 75 46 58 88 98 121 94 79 64 34 13 30 37 47 62 63 53 46 31 3 5 18 41 47 65 104 112 102 92 112 117 104 109 115 114 114 114 114 112 113 114 114 115 118 122 128 132 132
25 47 47 59 55 65 78 46 65 82 124 92 103 92 70 42 39 38 29 26 63 33 64 33 25 38 57 66 81 84 88 115 129 131 128 101 98 105 109 108 111 113 112 111 111 112 115 113 113 116 122 125 127 131
44 44 41 38 65 73 71 36 66 61 85 96 78 62 64 35 33 26 36 33 65 42 38 28 39 59 66 66 73 89 100 106 109 112 109 106 105 103 102 103 110 108 107 104 106 107 107 107 110 114 119 122 127 130
39 35 46 31 65 45 8 21 65 22 57 23 47 40 28 20 29 37 74 45 67 23 38 46 55 63 64 65 78 90 97 100 100 99 102 104 105 104 105 106 105 108 109 105 106 109 112 113 115 119 122 126 124 129
45 50 32 37 29 19 360 24 32 28 47 29 43 51 28 13 29 58 63 42 10 20 36 46 64 78 76 72 66 71 81 90 98 101 98 104 108 104 105 104 106 106 106 108 112 112 111 114 116 120 119 119 124 132
65 10 19 5 16 26 29 12 360 29 54 4 63 36 15 3 65 63 52 3 359 8 23 39 53 56 61 61 57 58 75 95 100 97 95 96 98 103 104 106 106 105 104 108 110 113 113 112 114 116 112 107 105 114
66 9 41 353 2 43 344 35 19 10 14 49 22 318 27 66 64 63 37 352 357 358 12 22 37 56 54 54 60 72 85 103 100 99 101 105 105 103 105 109 110 107 108 105 101 99 102 98 93 79 56 51 45 24
53 349 22 30 13 29 49 43 44 53 44 25 339 13 45 63 60 55 5 360 356 2 21 37 48 56 64 71 71 73 86 106 114 106 97 95 95 97 99 99 94 90 88 83 77 61 39 32 32 31 22 359 334 314
67 33 50 345 45 36 82 42 30 18 324 343 16 32 78 76 104 18 9 355 6 34 48 50 61 70 82 83 73 81 83 88 90 88 86 86 87 86 77 64 56 54 51 44 38 32 16 357 334 325 331 317 304 297
44 359 24 27 52 51 47 50 347 321 322 348 92 84 102 74 98 74 56 45 53 66 70 65 69 69 76 81 81 74 72 77 83 87 75 70 56 35 32 27 30 30 20 8 3 360 345 336 332 334 322 315 309 299
10 13 74 49 56 46 13 36 48 69 79 83 96 105 97 93 87 65 54 52 50 48 48 51 53 61 60 66 71 69 65 66 63 56 49 33 22 12 6 4 1 3 359 352 339 332 330 326 319 320 322 319 312 309
26 44 51 54 82 89 86 86 86 87 91 94 100 98 103 106 78 52 43 37 36 41 47 51 49 44 46 45 38 32 30 32 33 30 24 12 1 354 347 340 338 336 333 335 330 318 310 307 306 306 304 303 302 302
55 49 92 79 95 121 112 99 82 79 71 70 57 72 73 76 62 39 20 24 31 33 34 36 43 35 35 54 38 29 23 12 5 1 356 350 346 340 334 328 324 321 325 321 311 307 308 310 310 307 303 303 301 301
48 50 63 94 79 70 53 81 73 95 60 66 57 55 65 73 86 30 13 9 15 19 21 22 27 30 16 24 14 5 0 352 347 343 343 342 344 342 337 331 323 316 313 311 310 308 309 309 310 310 311 311 310 307
Wind_Speed_850mb
46 51 53 52 69 68 85 84 85 79 78 79 83 96 96 89 77 74 58 48 47 29 43 23 31 24 14 46 23 27 21 11 18 26 24 14 15 19 8 11 24 23 24 14 7 15 49 33 19 27 15 17 20 17
47 48 57 60 59 69 69 73 78 79 79 79 85 92 98 96 84 79 57 64 49 30 12 37 57 50 41 44 51 58 26 40 28 18 13 12 9 11 32 24 7 21 21 20 29 21 5 69 38 73 28 26 29 29
39 41 47 25 56 57 57 61 69 77 79 84 85 92 101 101 95 86 80 53 50 35 33 49 60 52 55 62 44 22 46 32 35 49 8 5 13 11 23 44 11 10 8 15 11 34 24 58 69 38 60 40 28 30
28 25 20 7 32 46 56 62 78 82 85 95 91 89 113 102 97 85 80 73 63 18 9 23 49 55 82 73 61 72 43 69 41 67 2 6 11 28 27 9 35 14 28 17 27 30 5 52 80 70 54 51 48 42
21 20 16 9 12 22 28 34 49 78 88 93 82 94 98 94 89 85 84 79 70 56 8 16 31 39 40 66 79 85 72 54 46 15 8 9 5 7 3 5 17 21 18 26 33 48 47 60 52 76 71 78 74 57
25 23 18 18 17 19 22 23 24 18 70 81 74 80 82 79 80 79 36 74 73 71 18 9 16 40 40 47 62 81 93 74 37 16 12 12 11 12 11 11 27 72 67 70 25 24 42 46 37 59 83 91 83 66
26 25 21 19 22 21 21 17 9 10 37 54 51 63 65 68 76 66 22 34 71 71 25 5 6 24 45 36 45 55 77 51 44 26 11 15 14 22 3 22 7 61 77 78 66 46 26 49 42 40 54 78 84 73
27 24 24 25 25 24 24 24 19 16 18 31 47 55 57 59 61 59 74 42 50 82 29 8 5 5 30 16 13 27 27 33 22 15 18 7 12 3 12 49 30 29 54 69 79 73 71 59 61 43 48 60 68 80
26 29 31 24 23 22 23 26 26 25 28 34 41 47 49 64 59 96 84 83 67 48 8 8 15 13 33 15 16 18 20 8 16 8 8 23 9 14 15 9 41 62 50 42 59 63 65 52 47 52 52 58 63 69
30 24 18 19 26 26 34 37 40 40 35 34 31 24 31 71 70 46 33 49 43 34 27 9 42 11 40 20 11 8 14 8 8 9 29 8 9 9 21 26 33 50 60 54 56 40 49 53 58 55 55 55 58 61
27 29 26 23 29 29 24 30 35 46 40 41 27 31 31 39 56 37 14 19 16 9 20 15 37 9 33 18 13 21 8 10 11 10 18 11 9 11 36 34 37 41 46 53 56 56 64 65 63 57 56 56 49 49
28 14 22 35 40 37 41 45 48 51 66 81 60 48 52 22 21 14 15 9 11 23 15 25 22 35 20 18 5 10 7 9 13 18 11 10 9 15 45 42 39 38 42 44 39 34 34 51 51 52 47 44 44 45
22 32 34 34 47 49 44 23 8 26 54 67 33 16 14 2 8 15 15 3 9 6 15 16 15 30 19 19 6 11 15 11 20 7 10 6 8 16 32 34 34 35 34 40 42 35 27 36 48 54 53 48 43 41
37 30 35 32 33 43 13 6 31 20 15 15 6 11 2 9 3 6 4 9 3 5 31 49 14 8 12 12 7 10 1 8 9 12 13 5 13 12 23 30 31 32 35 36 38 35 37 36 36 41 42 47 49 47
35 18 10 39 34 9 7 7 32 14 16 13 11 8 5 2 2 7 14 11 16 18 13 22 14 5 5 7 6 5 3 9 9 8 1 6 19 22 22 28 32 33 35 33 36 38 36 35 37 42 44 45 43 42
25 12 30 31 27 18 10 18 28 26 15 13 18 7 9 6 9 11 19 8 20 28 9 12 8 8 6 7 8 6 11 11 5 0 8 14 19 28 31 32 32 35 37 41 42 38 36 35 38 42 44 43 43 41
27 30 40 20 52 25 11 18 16 20 14 11 8 27 8 7 5 11 15 16 26 18 2 5 8 6 7 8 6 8 4 5 5 15 13 18 19 27 37 37 35 36 39 42 44 41 37 36 38 41 46 46 44 44
40 45 46 14 33 14 69 23 17 16 12 17 4 5 22 21 17 12 25 29 13 9 8 8 8 15 9 6 4 4 8 16 22 26 19 22 22 33 49 49 45 44 44 46 48 49 44 41 41 42 41 42 43 42
38 40 44 14 19 12 14 18 19 9 10 8 13 16 14 19 28 37 30 24 42 34 20 12 13 8 6 6 6 13 17 11 15 29 29 29 30 45 58 54 49 50 52 52 54 55 51 47 47 46 45 42 43 43
22 22 39 23 13 14 14 15 13 17 6 11 10 20 21 22 28 28 49 47 38 19 15 11 8 8 8 11 13 10 14 14 22 27 29 27 34 53 57 56 55 55 59 60 61 59 56 55 49 46 43 41 42 45
16 32 39 35 38 33 18 11 15 12 14 10 8 6 15 25 46 38 34 39 25 13 8 16 18 17 15 15 16 17 18 18 17 24 24 35 40 47 50 51 48 48 52 54 56 53 50 52 48 41 37 38 35 35
28 27 23 30 21 16 19 24 10 7 8 12 9 11 8 5 7 23 38 37 18 21 16 17 22 22 25 28 25 24 27 30 32 34 34 39 42 44 47 46 44 47 47 47 44 46 46 43 39 34 29 29 27 26
14 20 21 28 17 22 6 15 11 17 8 6 7 8 8 8 15 18 9 19 16 34 28 23 19 23 25 25 25 26 27 33 36 37 37 40 41 40 41 41 39 39 42 41 36 36 36 34 31 27 24 22 20 18
23 19 23 19 30 6 12 15 14 12 12 9 8 9 9 8 15 12 9 9 23 41 38 31 23 18 21 29 35 34 32 31 34 35 34 31 34 36 34 36 34 34 34 35 32 31 31 28 26 23 20 18 17 13
12 30 22 17 24 14 15 13 14 12 9 9 8 9 6 13 7 9 6 11 28 40 36 28 27 29 27 26 27 29 26 26 28 31 31 27 29 32 34 34 34 36 35 27 29 27 26 22 17 15 15 12 9 6
19 18 13 10 11 11 7 9 12 10 7 9 7 8 9 7 10 10 4 22 21 30 29 27 23 21 24 24 22 22 23 25 24 23 29 29 29 28 31 31 30 31 27 22 18 16 14 12 12 11 10 9 5 4
14 10 16 20 9 6 10 12 10 9 11 11 7 9 7 11 10 4 11 23 25 23 17 18 19 21 24 25 26 26 23 22 25 30 29 26 25 25 25 26 25 20 15 10 8 6 6 7 8 7 6 7 8 9
12 21 10 22 18 22 8 8 10 8 6 12 3 13 8 6 2 7 13 19 18 15 16 20 22 24 25 30 32 25 25 24 22 24 25 26 25 22 16 14 13 12 12 10 10 9 8 7 6 7 8 8 9 16
14 21 8 11 12 16 11 6 4 7 11 4 5 5 6 10 16 19 26 28 22 18 21 24 25 25 23 23 24 29 28 24 19 20 22 22 17 16 16 14 13 13 11 11 11 10 11 12 14 13 12 14 15 17
15 23 9 9 10 11 18 16 17 20 31 29 25 53 50 40 32 36 42 42 43 39 32 30 30 23 25 22 21 20 20 21 21 20 18 20 20 18 17 16 15 15 14 13 14 15 16 15 17 20 21 23 25 27
16 17 17 17 9 15 38 53 61 64 64 59 54 48 30 20 31 42 47 45 44 38 34 28 28 32 22 22 22 21 22 19 18 18 18 18 18 19 17 15 14 13 12 12 13 15 16 16 17 18 19 21 23 27
16 14 8 7 3 10 12 9 14 14 11 12 12 10 10 9 11 15 28 36 38 45 41 34 23 26 25 13 15 19 17 15 14 15 16 16 16 15 14 14 14 13 13 15 17 19 19 19 20 21 23 23 25 27
10 11 10 7 5 5 7 6 8 8 11 7 10 10 10 8 10 16 20 33 34 43 39 34 23 17 24 9 12 18 18 17 17 18 21 24 24 21 19 19 18 18 18 18 20 22 22 23 25 26 27 28 28 30
Wind_Direction_850mb
293 298 299 257 245 230 220 225 225 228 229 229 228 226 222 217 217 213 209 208 205 209 224 213 240 222 223 205 188 154 145 191 186 195 198 184 210 203 150 154 168 165 169 188 184 222 255 147 129 182 196 167 184 191
298 297 303 254 230 212 219 225 229 231 234 234 230 226 218 215 213 209 203 218 219 218 251 234 235 248 230 223 203 175 191 165 178 176 193 193 199 168 205 219 174 193 186 185 188 219 137 180 196 209 190 182 193 204
304 315 327 243 213 217 224 228 234 235 236 235 234 225 217 212 211 208 208 198 205 220 261 258 256 224 228 232 216 170 219 201 208 198 147 164 197 161 194 221 120 251 189 204 127 230 224 203 219 229 214 216 205 216
310 316 324 285 216 229 240 240 240 241 237 238 227 222 213 203 205 206 202 208 200 191 225 240 242 241 235 236 233 227 214 210 213 210 141 192 205 200 215 190 206 170 153 177 243 249 295 235 222 221 215 223 229 221
329 332 333 314 254 244 245 252 258 266 231 221 222 220 206 196 204 204 206 208 212 193 192 249 257 252 245 240 236 235 217 216 201 197 199 211 169 137 330 70 236 184 170 187 222 222 209 243 231 222 221 225 226 226
317 311 311 311 298 280 269 279 294 262 195 204 218 220 185 192 198 197 195 204 213 221 229 252 242 241 247 253 242 226 222 221 207 186 198 204 201 179 168 221 229 207 213 214 226 228 230 226 234 230 225 225 231 226
306 305 300 302 298 288 279 276 277 194 199 196 187 189 195 199 199 194 177 215 213 207 209 235 266 216 240 244 235 219 207 204 204 200 189 164 192 180 208 231 161 211 215 215 222 224 225 216 226 225 223 230 234 223
304 306 306 300 290 276 270 262 253 231 210 209 212 208 204 204 210 216 219 221 204 190 202 217 230 136 182 180 190 195 173 184 192 156 144 163 144 207 242 236 216 212 218 216 217 220 234 243 228 219 217 218 220 216
305 300 295 284 281 268 258 253 246 232 218 216 214 211 210 208 207 218 223 213 203 191 196 161 191 217 176 175 185 185 191 187 162 162 190 157 155 211 225 179 193 208 203 207 214 220 229 229 225 219 213 210 213 209
305 305 294 252 262 269 283 265 261 252 244 224 219 209 201 217 208 199 181 194 199 198 206 189 203 189 170 161 187 173 197 177 177 194 135 211 222 219 192 184 201 203 210 212 193 195 204 211 210 205 211 216 217 212
292 302 300 328 306 301 289 280 259 276 252 210 206 208 208 209 180 188 184 189 182 187 165 173 199 153 197 174 183 198 198 172 188 191 171 185 239 199 188 190 188 191 193 196 208 218 221 221 208 203 210 215 215 215
291 333 319 322 321 297 285 277 274 231 216 205 195 185 170 182 175 204 178 122 188 197 194 180 175 182 174 183 180 182 224 191 209 150 167 194 221 153 178 182 185 186 191 192 188 194 206 216 213 203 203 207 208 210
323 326 318 291 295 302 301 299 136 148 166 152 160 124 170 270 153 186 184 172 162 181 174 160 173 164 142 204 219 205 189 216 127 187 198 211 105 141 178 176 178 180 182 189 190 178 182 208 203 200 198 200 205 205
303 300 284 305 314 316 275 270 239 189 158 73 64 87 204 167 128 251 166 156 316 219 181 163 147 144 147 164 195 192 291 156 217 188 217 137 122 136 176 177 172 170 173 176 170 168 191 196 183 183 187 195 197 196
321 296 250 348 333 310 13 268 209 206 58 68 47 67 80 275 111 339 350 357 7 307 240 158 82 83 126 130 178 137 86 235 220 216 33 99 133 143 148 163 171 169 165 154 152 174 179 177 169 169 172 178 183 187
353 349 338 357 345 175 104 144 134 79 61 61 45 29 344 43 6 19 360 348 354 344 281 126 133 148 152 138 177 168 177 212 154 310 61 142 141 140 147 149 155 159 160 155 156 162 170 161 159 161 160 164 169 175
350 12 355 91 72 45 166 97 65 59 61 51 42 28 358 42 29 4 340 325 339 322 17 62 93 83 99 82 78 357 3 2 88 75 104 136 135 133 126 124 135 140 150 154 153 156 157 153 151 150 153 154 161 165
0 4 360 155 201 61 42 47 81 77 72 51 65 76 74 57 5 10 347 0 15 8 39 63 44 45 36 69 54 57 59 64 97 101 104 106 119 118 113 116 123 129 130 134 142 141 139 137 137 136 143 146 153 154
347 351 2 41 110 91 61 45 45 87 66 69 48 63 77 52 36 24 32 68 79 84 82 55 54 40 42 19 358 23 45 71 97 94 94 106 119 117 109 108 113 119 122 121 122 120 120 122 122 126 128 136 141 140
356 1 36 33 127 86 75 46 58 88 98 121 94 79 64 34 13 30 37 47 62 63 53 46 31 3 5 18 41 47 65 104 112 102 92 112 117 104 109 115 114 114 114 114 112 113 114 114 115 118 122 128 132 132
25 47 47 59 55 65 78 46 65 82 124 92 103 92 70 42 39 38 29 26 63 33 64 33 25 38 57 66 81 84 88 115 129 131 128 101 98 105 109 108 111 113 112 111 111 112 115 113 113 116 122 125 127 131
44 44 41 38 65 73 71 36 66 61 85 96 78 62 64 35 33 26 36 33 65 42 38 28 39 59 66 66 73 89 100 106 109 112 109 106 105 103 102 103 110 108 107 104 106 107 107 107 110 114 119 122 127 130
39 35 46 31 65 45 8 21 65 22 57 23 47 40 28 20 29 37 74 45 67 23 38 46 55 63 64 65 78 90 97 100 100 99 102 104 105 104 105 106 105 108 109 105 106 109 112 113 115 119 122 126 124 129
45 50 32 37 29 19 360 24 32 28 47 29 43 51 28 13 29 58 63 42 10 20 36 46 64 78 76 72 66 71 81 90 98 101 98 104 108 104 105 104 106 106 106 108 112 112 111 114 116 120 119 119 124 132
65 10 19 5 16 26 29 12 360 29 54 4 63 36 15 3 65 63 52 3 359 8 23 39 53 56 61 61 57 58 75 95 100 97 95 96 98 103 104 106 106 105 104 108 110 113 113 112 114 116 112 107 105 114
66 9 41 353 2 43 344 35 19 10 14 49 22 318 27 66 64 63 37 352 357 358 12 22 37 56 54 54 60 72 85 103 100 99 101 105 105 103 105 109 110 107 108 105 101 99 102 98 93 79 56 51 45 24
53 349 22 30 13 29 49 43 44 53 44 25 339 13 45 63 60 55 5 360 356 2 21 37 48 56 64 71 71 73 86 106 114 106 97 95 95 97 99 99 94 90 88 83 77 61 39 32 32 31 22 359 334 314
67 33 50 345 45 36 82 42 30 18 324 343 16 32 78 76 104 18 9 355 6 34 48 50 61 70 82 83 73 81 83 88 90 88 86 86 87 86 77 64 56 54 51 44 38 32 16 357 334 325 331 317 304 297
44 359 24 27 52 51 47 50 347 321 322 348 92 84 102 74 98 74 56 45 53 66 70 65 69 69 76 81 81 74 72 77 83 87 75 70 56 35 32 27 30 30 20 8 3 360 345 336 332 334 322 315 309 299
10 13 74 49 56 46 13 36 48 69 79 83 96 105 97 93 87 65 54 52 50 48 48 51 53 61 60 66 71 69 65 66 63 56 49 33 22 12 6 4 1 3 359 352 339 332 330 326 319 320 322 319 312 309
26 44 51 54 82 89 86 86 86 87 91 94 100 98 103 106 78 52 43 37 36 41 47 51 49 44 46 45 38 32 30 32 33 30 24 12 1 354 347 340 338 336 333 335 330 318 310 307 306 306 304 303 302 302
55 49 92 79 95 121 112 99 82 79 71 70 57 72 73 76 62 39 20 24 31 33 34 36 43 35 35 54 38 29 23 12 5 1 356 350 346 340 334 328 324 321 325 321 311 307 308 310 310 307 303 303 301 301
48 50 63 94 79 70 53 81 73 95 60 66 57 55 65 73 86 30 13 9 15 19 21 22 27 30 16 24 14 5 0 352 347 343 343 342 344 342 337 331 323 316 313 311 310 308 309 309 310 310 311 311 310 307